Location: El Gallo
(32.4380°N, 116.9347°W)
Time: 20:36:24
(UTC+00:00)

Cosmos 1515 Rocket - Pass Details

Date: 01 October 2022
Orbit: 604 x 630 km, 82.5° (Epoch: 01 December)

Event Time Altitude Azimuth Distance (km) Brightness Sun altitude
Exits shadow 12:10:22 45° 230° (SW) 855 3.8 -20.1°
Maximum altitude 12:11:21 56° 277° (W) 741 3.6 -19.9°
Drops below altitude 10° 12:15:44 10° 357° (N) 2,007 6.2 -19.0°
Sets 12:18:02 0° 2° (N) 2,920 7.1 -18.5°
